Regional Weather Roundup
Issued by NWS

Home | Current Version | Previous Version | Graphics & Text | Print | Product List | Glossary On
Versions: 1 2 3 4 5 6 7 8 9 10 11 12 13 14 15 16 17 18 19 20 21 22 23 24 25 26 27
000
ASUS45 KBOU 241707
RWRCO

WEATHER ROUNDUP FOR COLORADO
NATIONAL WEATHER SERVICE DENVER/BOULDER CO
1100 AM MDT SAT JUN 24 2017

NOTE: "FAIR" INDICATES FEW OR NO CLOUDS BELOW 12000 FEET WITH NO
SIGNIFICANT WEATHER AND/OR OBSTRUCTIONS TO VISIBILITY.

COZ001>005-013-030-031-241800-
...NORTHWEST COLORADO...

CITY           SKY/WX    TMP DP  RH WIND       PRES   REMARKS
CRAIG          FAIR      70  34  26 W8        30.34F
HAYDEN         FAIR      63  34  34 W6        30.36S
MEEKER         FAIR      72  35  25 NE14      30.33F
RABBIT EARS PA FAIR      52  30  43 NW9G16    30.55S
STEAMBOAT SPGS FAIR      62  35  36 W6        30.36S
WALDEN         FAIR      61  32  33 NW8       30.42S
$$

COZ006>008-011-241800-
...WEST CENTRAL VALLEYS...

CITY           SKY/WX    TMP DP  RH WIND       PRES   REMARKS
GRAND JUNCTION FAIR      82  30  15 SE5       30.18S
MONTROSE       FAIR      77  27  15 NW7       30.24F
EAGLE          SUNNY     70  28  21 S5        30.32F
RIFLE          FAIR      75  31  19 CALM      30.24F
DELTA          FAIR      80  27  14 CALM      30.21S
NUCLA          NOT AVBL
$$

COZ017>023-064>068-241800-
...SOUTHWEST COLORADO...

CITY           SKY/WX    TMP DP  RH WIND       PRES   REMARKS
DURANGO        FAIR      74  45  35 NE6       30.29F
CORTEZ         FAIR      81  29  15 S5        30.23F
PAGOSA SPRINGS FAIR      71  38  30 SW5       30.37F
TELLURIDE      FAIR      71  16  12 NW6       30.47S
WOLF CREEK PAS FAIR      55  36  47 SW10G16   30.69R
$$

COZ009-010-012-014-032>034-037-058>063-241800-
...CENTRAL COLORADO...

CITY           SKY/WX    TMP DP  RH WIND       PRES   REMARKS
ASPEN          FAIR      72  27  18 NE9       30.35S
BUENA VISTA    FAIR      66  38  35 CALM      30.37F
COPPER MTN     FAIR      54  12  19 NW22G32   30.62S
BERTHOUD PASS  FAIR      43  32  65 NW16G24   30.64R
COTTONWOOD PAS FAIR      64  34  32 E7        30.48S
GUNNISON       NOT AVBL
KREMMLING      NOT AVBL
LEADVILLE      FAIR      65  14  14 W14G23    30.46S
MONARCH PASS   FAIR      54  19  26 W21G29    30.73S
SALIDA         FAIR      69  43  39 E5        30.41F
SUNLIGHT       FAIR      55  28  35 SW5       30.60R
WILKERSON PASS FAIR      54  30  40 SW3       30.61R
$$

COZ069>075-241800-
...SAN LUIS VALLEY/SANGRE DE CRISTO MOUNTAINS...

CITY           SKY/WX    TMP DP  RH WIND       PRES   REMARKS
ALAMOSA        FAIR      69  46  43 S8        30.34F
DEL NORTE      FAIR      66  44  44 E6        30.37F
LA VETA PASS   FAIR      61  46  59 MISG      30.63S
SAGUACHE       FAIR      68  45  42 S8        30.37F
$$

COZ035-036-038>040-241800-
...NORTHERN COLORADO FRONT RANGE...

CITY           SKY/WX    TMP DP  RH WIND       PRES   REMARKS
DENVER INTL AP PTSUNNY   65  48  54 NW5       30.33R
DMNS CITY PARK   N/A     65  48  53 NE8G15    30.33S
AURORA         PTSUNNY   64  49  58 N7        30.34R
FRONT RANGE AP CLOUDY    68  50  52 NE5       30.33S
ERIE MUNI ARPT PTSUNNY   63  50  61 NW3       30.33R
BOULDER MUN AP CLOUDY    61  48  63 N3        30.34R
CENTENNIAL     FAIR      63  48  58 NW5       30.34S
BROOMFIELD     CLOUDY    61  50  67 N3        30.36R
FORT COLLINS   PTSUNNY   64  42  44 CALM      30.34S
LONGMONT       CLOUDY    67  47  48 N3        30.35R
$$

COZ041-046-047-076>085-087-088-241800-
...PIKES PEAK/PALMER DIVIDE AND SOUTHERN FOOTHILLS...

CITY           SKY/WX    TMP DP  RH WIND       PRES   REMARKS
COLO. SPRINGS  PTSUNNY   65  46  50 SE10      30.36S
A. F. ACADEMY  PTSUNNY   64  44  47 S13       30.35F
SCHRIEVER AFB  PTSUNNY   63  45  51 S13G22    30.37R
CHEYENNE MTN   PTSUNNY   58  46  63 SE13      30.33S
ELLICOTT       CLOUDY   N/A N/A N/A S14       30.35S
FALCON           N/A     62  44  51 S15G23    30.39F
FORT CARSON    CLOUDY    65  46  49 SE13      30.33S
LIMON          CLOUDY    65  45  48 SE13      30.34S
MONUMENT HILL  CLOUDY    63  45  51 SE10G20   30.39S
CANON CITY     PTSUNNY   72  52  49 E9G16     30.30S
WALSENBURG     CLOUDY    68  50  52 SE5       30.33S
TRINIDAD       CLOUDY    65  47  52 SE6       30.33F
$$

COZ042>045-048>051-090-091-241800-
...NORTHEAST COLORADO...

CITY           SKY/WX    TMP DP  RH WIND       PRES   REMARKS
GREELEY ARPT   PTSUNNY   63  43  48 VRB3      30.33S
AKRON          CLOUDY    64  41  42 E9        30.32R
BURLINGTON     CLOUDY    68  49  50 S10       30.32S
WRAY           CLOUDY    70  45  40 SE9       30.32R
YUMA           CLOUDY    63  46  55 SE8       30.32R
STERLING       CLOUDY    68  43  40 SE7       30.30R
HOLYOKE        NOT AVBL
FORT MORGAN    PTSUNNY   66  41  39 E10       30.32S
$$

COZ086-089-092>099-241800-
...SOUTHEAST COLORADO...

CITY           SKY/WX    TMP DP  RH WIND       PRES   REMARKS
PUEBLO         CLOUDY    68  48  48 SE13      30.29S
LA JUNTA       CLOUDY    71  46  40 SE13      30.28S
LAMAR          CLOUDY    72  45  37 SE15      30.27S
SPRINGFIELD      N/A     68  46  45 S17       30.32R
$$




USA.gov is the U.S. government's official web portal to all federal, state and local government web resources and services.